Temperature
20 18 18 18 18 20 21 21 20 21 23 23 22 22 22 23 22 22 22 21 21 22 22 22 22 23 23 22 21 20 20 20 19 19 19 18 18 18 17 17 17 17 17 17
19 18 19 20 20 20 21 20 20 21 22 22 21 21 21 21 21 22 22 21 20 21 22 22 23 22 22 21 20 19 19 19 19 19 19 18 18 17 17 17 17 17 17 17
19 20 21 21 21 21 21 20 20 20 21 22 21 20 20 21 22 22 21 21 20 21 22 22 22 21 21 21 20 19 19 18 18 18 18 18 17 17 17 17 17 17 17 17
18 19 20 21 21 21 20 22 21 21 20 19 20 18 19 19 19 19 19 18 20 21 22 22 21 21 21 20 20 19 18 18 18 18 17 17 17 17 17 17 17 17 17 17
18 19 20 20 21 22 21 21 20 20 20 18 19 18 18 19 20 19 18 18 20 21 21 21 21 20 20 20 19 19 18 17 17 17 17 17 16 16 16 16 16 16 16 16
19 20 20 20 21 21 21 21 19 17 17 18 19 18 18 18 19 20 19 19 20 21 21 21 21 20 20 20 19 19 18 17 17 17 16 16 16 16 15 15 15 15 15 16
18 19 20 21 21 21 21 19 17 17 16 17 18 18 18 20 19 19 19 20 21 22 22 21 21 21 21 20 19 19 18 17 17 16 16 16 15 15 15 15 15 15 15 15
17 17 19 20 20 19 19 18 17 17 17 16 18 17 18 20 20 21 21 22 22 22 22 22 22 22 21 20 19 18 18 17 16 16 15 15 15 15 15 15 15 15 15 15
17 17 19 20 21 20 19 18 18 17 17 17 17 17 19 20 21 21 21 21 22 22 23 23 22 22 21 20 19 18 17 17 16 16 15 15 15 15 15 15 15 14 14 14
16 16 17 18 21 20 19 18 15 16 16 16 17 17 18 20 20 21 20 21 22 23 23 23 23 22 21 20 19 18 17 17 17 16 15 15 15 15 15 15 15 14 14 14
15 15 16 17 17 17 18 18 16 14 15 15 16 17 18 19 19 19 19 21 22 23 23 23 23 22 21 20 19 18 17 17 17 16 16 15 15 15 15 15 15 15 15 15
14 13 14 15 16 17 16 16 15 16 15 14 14 16 18 18 18 18 20 21 22 22 22 22 22 22 21 20 19 18 17 17 17 16 16 15 15 15 15 15 15 15 15 15
15 14 15 15 16 16 16 16 15 14 14 13 13 16 18 18 19 20 20 21 22 22 23 22 22 22 21 21 20 19 18 17 17 16 16 16 15 15 15 15 15 14 14 15
15 14 15 15 16 16 16 17 15 14 13 13 13 15 17 18 18 19 20 21 22 22 23 23 22 22 22 21 20 19 18 18 17 16 16 16 16 15 15 15 15 14 14 14
14 14 14 14 16 16 16 16 16 14 14 14 15 15 17 18 18 19 21 21 21 22 22 23 23 22 22 21 20 19 19 18 17 17 17 17 16 16 15 15 15 14 14 14
13 14 14 14 15 15 15 16 16 16 15 15 15 16 17 18 19 19 20 21 21 22 22 22 22 22 22 21 21 20 19 18 18 17 17 17 16 16 16 16 15 15 15 15
13 13 13 13 13 14 14 15 15 15 15 15 15 17 17 16 16 18 20 21 21 22 22 21 21 22 22 21 20 20 19 18 18 18 17 17 16 16 16 16 15 15 15 15
12 12 12 12 13 13 15 16 16 15 16 16 16 16 16 16 18 20 20 20 21 22 22 22 21 21 21 20 19 19 18 18 18 17 17 17 17 16 16 16 15 15 15 15
11 12 12 12 13 14 15 16 16 15 15 16 15 15 16 18 18 19 20 21 21 21 21 21 20 20 20 19 18 18 18 18 17 17 17 17 17 16 16 16 15 15 15 15
11 11 12 12 13 14 15 16 16 15 15 16 15 15 16 17 16 17 19 20 21 20 20 19 19 19 18 17 17 17 16 16 16 16 16 16 16 16 16 16 15 15 15 14
12 12 12 12 13 14 15 15 16 14 14 14 14 14 15 16 17 18 18 19 19 18 18 18 18 17 17 16 15 15 15 14 14 14 14 15 15 15 16 15 15 15 14 14
11 12 12 12 12 13 14 15 14 13 14 13 14 14 16 18 17 17 17 17 17 17 17 17 16 16 15 14 14 14 13 13 13 13 13 13 13 14 14 14 14 14 14 13
10 10 10 11 12 13 13 14 14 13 13 13 13 14 16 17 17 16 16 16 17 17 16 16 15 15 14 13 13 13 12 12 12 12 12 12 12 12 12 13 13 13 13 13
10 10 10 11 12 12 13 14 14 13 13 13 13 14 16 16 17 16 16 17 17 16 16 15 14 14 13 13 13 12 12 12 11 11 11 11 11 11 11 10 11 11 12 12
9 10 10 10 11 13 13 13 13 13 13 13 14 15 16 17 18 17 17 17 17 16 15 15 14 14 13 13 13 13 12 12 11 11 11 11 11 11 10 10 11 11 11 12
8 9 9 9 11 11 11 12 12 12 12 13 14 15 17 18 18 18 17 17 17 16 16 15 14 14 14 13 13 13 12 12 11 11 11 10 10 10 11 11 11 11 11 11
Wind_Speed
1 2 4 7 6 3 2 3 5 8 7 4 9 11 14 8 5 8 9 9 9 6 1 3 5 4 1 2 4 5 6 5 6 4 4 4 4 4 4 4 6 9 11 12
2 5 7 4 5 4 3 4 6 9 8 5 8 9 10 7 6 8 11 12 9 4 1 4 5 4 1 3 4 5 5 6 6 4 3 3 3 2 3 2 3 8 10 11
7 5 3 5 6 6 5 5 6 8 8 4 3 7 7 6 4 3 5 8 8 8 7 5 3 2 1 3 5 5 5 6 6 5 4 3 3 3 2 3 4 6 9 10
5 5 5 8 8 6 5 6 6 8 6 6 2 4 8 6 7 4 5 8 10 8 7 6 6 5 4 3 3 5 6 6 6 7 6 5 5 4 4 4 4 5 6 7
5 3 4 6 6 3 6 6 5 6 6 4 3 4 8 5 7 7 7 8 9 9 9 8 8 7 5 4 5 5 6 6 6 6 7 5 4 3 3 4 6 5 5 5
7 4 5 6 4 3 3 2 3 4 3 3 6 6 7 5 7 6 6 8 9 9 8 8 7 6 4 3 3 4 4 4 5 5 5 5 6 5 5 5 7 6 5 6
7 6 5 5 4 5 4 1 4 5 4 6 5 3 8 7 7 7 8 10 9 9 9 9 9 9 8 7 5 4 3 3 4 6 6 6 7 7 7 6 8 8 7 6
4 8 4 2 7 8 6 9 7 5 5 5 4 5 8 6 5 4 5 7 9 10 10 11 11 10 8 7 6 5 5 3 4 5 5 5 6 5 4 5 6 7 6 6
3 6 6 4 5 6 4 6 8 6 4 2 6 7 9 4 2 2 4 6 9 11 12 12 10 9 8 8 8 7 6 5 5 5 5 5 6 6 6 6 6 5 6 7
3 6 8 8 4 3 2 4 5 6 6 4 6 5 5 6 5 4 4 7 9 10 10 10 8 8 8 8 7 7 6 6 4 4 4 4 5 6 5 6 7 6 6 6
2 3 7 6 5 3 2 2 4 4 4 6 4 7 7 6 6 6 8 8 9 10 10 9 8 7 7 7 8 8 7 6 5 5 4 3 4 5 5 5 6 6 6 7
4 3 3 6 5 3 2 3 5 4 4 4 4 8 8 6 6 6 7 8 8 9 9 8 7 7 7 8 8 8 8 7 7 6 6 5 5 6 6 6 6 6 6 7
4 3 3 8 6 3 2 2 3 4 4 5 6 8 5 4 5 4 6 8 8 8 9 8 8 9 9 9 8 8 8 8 7 7 7 7 7 8 8 8 7 5 4 4
2 3 5 6 7 3 5 4 4 5 5 6 8 10 10 10 9 9 8 9 9 8 8 8 9 9 9 8 8 8 8 7 6 6 6 7 8 9 9 9 8 7 6 5
2 3 5 7 8 5 8 12 7 9 9 10 10 12 14 12 11 9 8 9 9 9 8 9 10 9 8 8 8 8 7 7 7 7 7 8 7 7 8 8 9 8 8 8
0 3 2 5 6 6 9 15 13 11 11 11 14 18 13 14 10 10 12 11 11 11 9 8 9 9 9 8 8 8 8 7 7 8 9 7 6 7 7 8 8 8 9 8
3 4 2 5 5 7 8 10 8 7 7 8 14 19 14 10 12 12 12 10 11 11 7 6 7 7 7 7 7 9 8 6 7 8 8 7 7 7 7 7 8 9 9 8
6 5 4 3 2 6 7 3 3 6 9 8 13 17 15 12 12 10 9 9 10 7 4 6 6 5 3 2 4 6 5 6 8 8 8 8 8 8 7 8 8 8 7 7
7 7 5 4 4 7 7 3 2 4 6 5 17 20 12 6 4 6 5 4 2 2 4 6 7 7 6 5 3 2 2 4 5 7 8 8 7 7 7 8 8 7 6 5
3 3 4 4 4 4 4 10 10 1 6 18 22 20 11 0 0 5 2 6 8 9 9 8 8 9 9 7 7 8 5 2 2 4 6 6 7 8 8 8 6 5 5 6
2 1 4 4 3 2 6 14 8 7 11 20 18 17 10 5 4 2 5 7 8 9 8 8 9 8 6 5 7 8 6 4 3 4 3 2 4 6 7 5 6 7 7 7
5 4 2 1 2 2 9 9 7 5 10 12 13 16 12 7 4 4 6 7 8 8 7 7 8 7 5 5 7 7 4 3 4 4 4 3 1 1 2 4 5 7 7 6
5 6 6 5 2 4 7 5 3 6 10 10 13 16 13 7 3 2 4 6 6 7 6 5 7 6 4 4 4 3 1 3 4 4 4 3 3 3 3 4 4 3 4 4
4 4 5 8 8 14 12 4 7 9 11 12 11 12 13 9 3 3 5 5 5 5 5 5 6 5 2 1 0 1 1 1 3 3 2 2 3 4 4 3 3 2 3 3
5 5 6 8 12 12 7 8 11 13 15 14 13 12 11 9 4 6 6 6 6 5 4 4 5 4 3 2 3 3 3 3 3 3 2 3 3 4 4 4 2 2 2 2
3 4 5 7 10 12 19 16 13 15 16 14 15 17 15 9 5 7 7 6 6 6 5 4 4 3 3 2 3 2 4 4 4 3 2 2 2 3 4 4 5 8 6 6
Wind_Direction
6 84 219 225 217 221 193 209 259 267 263 244 247 258 271 285 217 206 191 193 201 196 288 353 2 349 285 184 179 172 156 136 138 146 168 185 208 206 195 207 211 192 187 189
1 260 241 227 224 247 258 280 282 287 284 239 245 262 272 280 233 212 197 195 191 175 251 315 343 359 242 195 182 164 152 147 158 156 150 165 161 176 173 177 215 209 195 192
220 261 276 235 234 232 243 233 257 271 305 333 265 294 295 292 288 284 201 177 171 183 201 229 268 286 211 200 193 179 157 150 154 145 122 106 96 96 139 180 199 215 202 194
240 260 258 250 246 222 261 258 265 274 286 284 271 273 282 287 298 277 183 165 176 188 197 208 223 233 217 190 159 160 160 158 159 157 167 170 171 179 184 178 185 195 201 197
247 235 228 237 235 214 258 309 307 272 243 258 280 230 279 299 278 255 196 183 185 192 194 200 211 222 219 181 162 164 164 164 166 169 168 163 165 171 162 159 159 157 163 160
244 238 219 222 236 220 266 341 19 39 78 265 244 205 280 251 236 250 195 193 190 192 200 209 214 216 223 207 181 164 160 155 152 163 167 180 188 188 181 174 165 160 152 140
316 294 247 208 268 292 181 140 347 339 355 262 290 219 251 259 247 226 201 198 190 192 201 210 210 207 211 209 204 189 180 170 155 167 184 197 198 197 198 184 174 167 161 150
318 306 295 216 203 231 217 174 188 225 234 286 309 245 258 275 298 218 190 182 183 199 208 212 211 206 204 204 202 201 204 197 173 185 195 195 199 201 201 184 172 171 162 148
241 279 300 295 250 184 185 204 189 158 176 251 285 288 301 290 338 84 136 167 200 213 216 218 213 204 196 197 203 205 210 208 188 193 190 184 194 199 197 181 171 166 156 150
210 267 298 308 5 43 169 154 107 141 164 228 283 282 262 284 263 263 232 223 230 232 233 232 220 208 197 194 195 196 205 213 201 195 196 185 195 199 189 174 177 176 168 158
140 208 309 356 37 341 347 68 105 118 154 162 238 266 230 243 263 258 262 264 259 250 242 238 227 208 197 187 184 188 194 197 192 195 205 192 196 198 186 183 188 181 173 170
166 129 287 281 272 216 195 187 161 166 220 194 199 261 266 251 265 251 269 278 271 264 252 239 220 196 194 195 191 188 190 197 194 185 195 203 189 187 186 186 186 179 177 181
166 115 0 338 343 359 44 138 162 139 145 187 200 259 291 301 297 278 273 279 274 266 255 226 198 193 198 200 196 194 197 205 197 179 190 201 194 190 193 192 188 184 181 187
152 165 182 223 251 273 297 261 180 154 182 220 226 249 280 287 286 281 264 263 271 271 256 220 201 198 198 197 196 200 209 206 195 188 199 207 204 201 197 192 188 185 181 185
94 242 245 252 265 267 264 271 239 207 212 216 238 241 248 252 256 265 270 274 284 283 257 219 201 198 196 195 198 203 211 202 191 197 216 225 210 198 192 190 190 187 188 194
183 257 289 292 292 293 276 271 261 244 238 242 257 264 252 250 255 265 269 272 277 277 261 224 196 187 193 198 201 204 209 200 191 207 222 227 207 194 192 188 182 184 193 196
231 217 235 271 306 332 281 257 246 243 243 243 265 272 270 257 249 248 258 264 262 268 262 210 187 186 188 192 197 212 215 189 195 217 225 216 203 199 197 186 179 187 191 190
208 190 206 254 329 255 252 272 258 271 272 270 286 290 278 253 251 253 247 247 256 260 228 177 155 138 133 163 203 219 214 199 204 217 227 222 211 210 199 191 195 195 188 191
199 180 189 185 219 275 315 1 333 313 295 4 340 331 311 257 257 280 247 221 216 133 116 107 104 103 90 72 76 138 196 217 223 230 235 235 226 221 206 203 203 193 181 178
110 160 192 184 186 234 329 320 315 255 320 349 343 336 325 199 244 283 41 95 95 93 95 98 97 91 80 66 76 80 75 78 281 271 256 245 235 229 221 204 184 177 171 165
341 220 217 204 204 282 341 330 2 44 329 326 329 330 320 276 256 305 85 91 98 95 90 89 87 84 85 90 88 81 71 53 0 340 327 278 240 232 227 196 165 161 160 155
339 327 300 215 171 87 4 1 24 334 305 314 329 339 330 320 355 59 84 100 101 96 89 89 94 89 74 70 83 79 52 17 25 38 40 31 10 253 205 165 151 154 155 145
4 7 326 310 297 352 332 327 13 331 322 326 331 338 341 339 350 68 106 108 108 111 108 103 107 96 67 52 83 105 359 6 36 48 47 47 47 40 74 115 127 133 139 134
314 351 318 308 308 316 306 315 329 332 327 320 318 324 344 330 282 181 157 148 140 129 126 123 119 120 131 157 153 222 253 69 57 45 35 49 69 67 63 78 116 147 174 160
279 294 278 273 288 299 289 327 331 328 329 328 324 325 332 329 269 209 195 176 163 147 142 139 144 160 190 224 252 239 195 152 106 75 53 46 67 93 91 81 83 158 174 162
262 271 291 289 307 306 301 310 321 319 321 322 322 326 331 326 262 209 203 186 165 158 153 156 177 203 230 251 280 239 181 157 133 108 74 60 81 97 108 106 89 61 65 65
Height
1493 1498 1500 1497 1497 1496 1496 1498 1500 1493 1484 1487 1488 1486 1478 1474 1477 1477 1477 1477 1479 1480 1482 1484 1486 1486 1486 1486 1486 1487 1491 1495 1499 1501 1503 1505 1507 1510 1512 1514 1517 1519 1521 1524
1498 1500 1494 1492 1493 1494 1496 1500 1499 1491 1482 1485 1487 1485 1477 1473 1472 1471 1472 1474 1477 1480 1482 1484 1484 1484 1483 1483 1484 1485 1488 1492 1495 1498 1500 1502 1504 1507 1509 1510 1512 1515 1517 1520
1499 1494 1490 1492 1493 1495 1495 1498 1496 1494 1485 1483 1486 1488 1480 1472 1470 1469 1470 1472 1476 1479 1481 1482 1482 1482 1482 1482 1482 1484 1487 1489 1492 1495 1497 1499 1500 1502 1505 1506 1507 1510 1512 1515
1496 1491 1491 1491 1491 1491 1496 1487 1488 1490 1495 1499 1491 1505 1486 1476 1472 1469 1469 1470 1473 1477 1479 1480 1480 1481 1481 1481 1481 1483 1484 1486 1489 1492 1494 1495 1497 1498 1500 1501 1503 1505 1508 1510
1494 1489 1489 1491 1488 1487 1489 1484 1487 1489 1493 1499 1495 1501 1492 1477 1474 1468 1467 1469 1472 1475 1478 1479 1479 1480 1480 1481 1480 1481 1482 1484 1486 1488 1490 1492 1493 1494 1495 1496 1497 1499 1502 1504
1488 1484 1484 1484 1481 1482 1484 1487 1490 1495 1500 1509 1496 1500 1496 1479 1470 1465 1466 1468 1470 1474 1476 1477 1477 1478 1479 1480 1480 1481 1482 1482 1483 1485 1487 1488 1489 1489 1490 1491 1492 1493 1496 1499
1492 1484 1479 1478 1482 1482 1485 1498 1513 1513 1517 1513 1495 1496 1490 1468 1464 1463 1463 1466 1468 1472 1473 1474 1475 1476 1478 1479 1480 1481 1481 1481 1482 1483 1484 1485 1485 1486 1487 1488 1489 1490 1492 1494
1504 1499 1482 1478 1480 1484 1486 1494 1511 1519 1520 1511 1497 1498 1480 1464 1460 1459 1461 1464 1467 1469 1470 1471 1473 1474 1476 1477 1479 1479 1480 1480 1481 1482 1483 1483 1483 1484 1485 1486 1487 1488 1489 1491
1502 1498 1480 1477 1474 1477 1484 1488 1485 1502 1507 1509 1503 1491 1474 1461 1460 1460 1461 1463 1465 1466 1467 1469 1470 1472 1474 1475 1477 1478 1478 1479 1479 1480 1482 1482 1483 1483 1484 1485 1486 1487 1488 1489
1499 1502 1487 1479 1473 1475 1479 1483 1495 1502 1513 1516 1505 1496 1486 1467 1463 1461 1462 1462 1463 1464 1465 1466 1468 1469 1471 1473 1475 1476 1477 1477 1478 1479 1480 1481 1482 1483 1484 1484 1486 1487 1489 1490
1497 1501 1496 1487 1486 1488 1484 1487 1493 1500 1502 1512 1513 1499 1471 1467 1464 1463 1462 1461 1461 1462 1462 1463 1465 1467 1469 1471 1472 1473 1474 1476 1477 1478 1479 1480 1482 1483 1483 1484 1486 1488 1490 1491
1497 1502 1502 1493 1484 1482 1484 1487 1493 1501 1503 1504 1509 1497 1461 1462 1460 1460 1459 1459 1459 1459 1460 1461 1462 1464 1466 1468 1469 1471 1472 1474 1476 1477 1478 1479 1480 1481 1483 1484 1486 1488 1490 1493
1494 1499 1504 1499 1495 1487 1485 1486 1488 1493 1499 1506 1509 1492 1461 1459 1457 1457 1457 1457 1456 1455 1454 1454 1456 1459 1462 1464 1467 1469 1470 1472 1474 1475 1476 1477 1478 1479 1480 1482 1484 1487 1490 1492
1492 1497 1501 1504 1497 1489 1488 1484 1486 1492 1500 1501 1495 1481 1466 1459 1456 1454 1454 1453 1452 1451 1449 1448 1449 1453 1458 1461 1464 1466 1467 1469 1471 1473 1473 1474 1475 1476 1478 1479 1482 1484 1487 1490
1493 1498 1495 1492 1487 1486 1485 1482 1481 1486 1486 1488 1479 1472 1461 1455 1452 1450 1449 1448 1447 1446 1445 1444 1445 1449 1454 1457 1460 1463 1465 1467 1468 1470 1470 1471 1473 1474 1475 1477 1478 1480 1483 1486
1493 1495 1494 1493 1485 1485 1483 1476 1474 1475 1474 1474 1469 1461 1451 1448 1447 1446 1445 1444 1443 1441 1441 1441 1443 1447 1451 1454 1457 1460 1462 1464 1465 1467 1468 1469 1470 1471 1473 1474 1476 1478 1480 1483
1494 1495 1497 1498 1490 1487 1486 1472 1470 1471 1468 1468 1466 1453 1445 1444 1442 1440 1439 1439 1439 1438 1437 1438 1440 1445 1449 1452 1454 1457 1459 1461 1462 1463 1465 1466 1467 1468 1470 1472 1474 1475 1477 1479
1491 1493 1496 1497 1494 1496 1477 1466 1466 1467 1463 1462 1458 1447 1439 1437 1435 1435 1435 1435 1434 1435 1435 1436 1439 1443 1447 1449 1451 1453 1455 1456 1457 1459 1461 1462 1463 1465 1466 1468 1470 1471 1473 1475
1485 1490 1494 1496 1495 1487 1473 1467 1466 1467 1463 1458 1454 1443 1434 1432 1433 1431 1431 1431 1432 1433 1433 1435 1439 1443 1445 1447 1449 1450 1451 1451 1452 1453 1455 1457 1459 1460 1461 1463 1465 1466 1468 1470
1484 1486 1490 1491 1491 1488 1477 1467 1462 1464 1464 1457 1453 1446 1438 1435 1438 1433 1430 1430 1431 1433 1435 1437 1440 1443 1445 1447 1448 1449 1448 1448 1448 1448 1449 1451 1452 1453 1455 1457 1459 1461 1463 1465
1488 1487 1487 1487 1486 1481 1477 1469 1464 1477 1479 1465 1456 1448 1442 1439 1437 1434 1431 1432 1434 1436 1438 1441 1443 1444 1446 1447 1448 1448 1448 1448 1447 1446 1446 1446 1446 1447 1449 1451 1453 1455 1457 1460
1492 1488 1485 1484 1486 1487 1478 1473 1477 1482 1474 1466 1457 1449 1442 1439 1437 1434 1434 1435 1437 1439 1441 1443 1444 1445 1446 1448 1449 1449 1449 1448 1447 1446 1445 1444 1444 1444 1444 1446 1448 1451 1453 1457
1497 1498 1494 1489 1485 1481 1479 1478 1478 1476 1470 1463 1457 1451 1445 1441 1440 1438 1437 1438 1440 1441 1442 1444 1445 1446 1448 1449 1450 1450 1450 1450 1448 1447 1445 1444 1443 1443 1443 1443 1445 1448 1451 1454
1499 1496 1494 1489 1480 1480 1478 1475 1473 1470 1466 1462 1457 1452 1446 1442 1441 1440 1440 1441 1442 1443 1444 1445 1446 1448 1449 1451 1451 1451 1451 1450 1449 1447 1446 1445 1444 1444 1443 1444 1445 1448 1451 1454
1501 1498 1494 1489 1482 1476 1471 1472 1470 1465 1461 1457 1454 1450 1445 1442 1440 1441 1441 1442 1443 1444 1445 1446 1447 1449 1450 1451 1451 1451 1451 1450 1449 1448 1447 1446 1446 1445 1445 1445 1446 1448 1451 1453
1499 1498 1496 1490 1485 1482 1473 1470 1468 1464 1459 1456 1452 1446 1443 1441 1439 1439 1441 1442 1444 1445 1446 1447 1448 1450 1451 1451 1451 1450 1450 1450 1449 1448 1448 1447 1446 1446 1447 1447 1448 1450 1452 1453